Regional Weather Roundup
Issued by NWS Goodland, KS

Home | Current Version | Previous Version | Text Only | Print | Product List | Glossary On
Versions: 1 2 3 4 5 6 7 8 9 10 11 12 13 14 15 16 17 18 19 20 21 22 23 24 25 26 27 28 29 30 31 32 33 34 35 36 37 38 39 40 41 42 43 44 45 46 47 48 49 50
000
ASUS43 KGLD 202308
RWRGLD

GOODLAND FORECAST AREA HOURLY WEATHER ROUNDUP
NATIONAL WEATHER SERVICE GOODLAND KS
500 PM MDT SUN MAY 20 2018

...OFFICIAL OBSERVATIONS...

CITY           SKY/WX    TMP DP  RH WIND       PRES   REMARKS
GOODLAND KS    SUNNY     62  47  57 NE8       30.12F
HILL CITY KS   CLOUDY    60  53  77 NE8       30.11F
IMPERIAL NEB   CLOUDY    60  46  59 CALM      30.13F
MCCOOK NEB     CLOUDY    62  47  57 NE6       30.11F
AKRON CO       CLOUDY    56  44  64 E9        30.14S
BURLINGTON CO  PTSUNNY   60  45  57 E7        30.13S
LIMON CO       PTSUNNY   60  40  47 S7        30.14S
$$

...UNOFFICIAL OBSERVATIONS...

CITY           SKY/WX    TMP DP  RH WIND       PRES   REMARKS
COLBY KS       CLOUDY    61  50  67 N8        30.14R
NORTON KS      CLOUDY    59  52  77 NE5       30.10
SHARON SPRINGS   N/A     65  48  55 MISG        N/A
KIT CARSON CO    N/A     64  43  47 CALM        N/A
YUMA CO        CLOUDY    55  28  35 E7        30.13F
$$




USA.gov is the U.S. government's official web portal to all federal, state and local government web resources and services.